Location: Napa Junction
(38.1874°N, 122.2508°W)
Time: 15:06:15
(UTC+00:00)

SeaSat 1 - Pass Details

Date: 08 September 2024
Orbit: 739 x 742 km, 108.0° (Epoch: 08 October)

Event Time Altitude Azimuth Distance (km) Brightness Sun altitude
Rises 13:05:54 0° 198° (SSW) 3,161 5.4 -8.4°
Reaches altitude 10° 13:09:08 10° 221° (SW) 2,244 4.4 -7.8°
Maximum altitude 13:11:53 15° 256° (WSW) 1,927 3.9 -7.3°
Drops below altitude 10° 13:14:38 10° 290° (WNW) 2,255 4.4 -6.8°
Sets 13:17:54 0° 314° (NW) 3,185 5.4 -6.1°
